Regional Weather Roundup
Issued by NWS

Home | Current Version | Previous Version | Text Only | Print | Product List | Glossary Off
Versions: 1 2 3 4 5 6 7 8 9 10 11 12 13 14 15 16 17 18 19 20 21 22 23 24 25 26 27 28 29 30 31 32 33 34 35 36 37 38 39 40 41 42 43 44 45 46 47 48 49 50

000
ASUS43 KLSX 181159
RWRMO

WEATHER SUMMARY FOR MISSOURI
NATIONAL WEATHER SERVICE SPRINGFIELD MO
600 AM CST THU DEC 18 2014

NOTE: "FAIR" INDICATES FEW OR NO CLOUDS BELOW 12,000 FEET WITH NO
       SIGNIFICANT WEATHER AND/OR OBSTRUCTIONS TO VISIBILITY.
       CURRENT SKY AND/OR WEATHER CONDITIONS ARE NOT AVAILABLE FOR
       CHILLICOTHE AND FARMINGTON.

MOZ001>031-035>038-043-044-053-054-181300-
...NORTHERN AND WESTERN MISSOURI...

CITY           SKY/WX    TMP DP  RH WIND       PRES   REMARKS
KANSAS CTY INT LGT SNOW  28  26  92 E8        30.20F VSB 1   WCI  20
6HR MIN TEMP:  28; 6HR MAX TEMP:  30; 6HR PCP:  0.22;

KANSAS C DTWN  LGT SNOW  29  27  92 E8        30.21F FOG     WCI  21
6HR MIN TEMP:  29; 6HR MAX TEMP:  31; 6HR PCP:  0.15;

LEE`S SUMMIT   LGT SNOW  29  26  89 E9        30.20S VSB 1   WCI  20
6HR MIN TEMP:  28; 6HR MAX TEMP:  30; 6HR PCP:  0.06;

ST JOSEPH      LGT SNOW  28  26  92 E5        30.23S FOG     WCI  23
6HR MIN TEMP:  28; 6HR MAX TEMP:  30; 6HR PCP:  0.08;

CHILLICOTHE      N/A     27  24  89 VRB3      30.26S
6HR MIN TEMP:  27; 6HR MAX TEMP:  31; 6HR PCP:  0.14;

KIRKSVILLE     LGT SNOW  25  24  96 E6        30.27R VSB 1   WCI  18
6HR MIN TEMP:  25; 6HR MAX TEMP:  27; 6HR PCP:  0.02;


$$
MOZ066>068-077>081-088>096-101>105-181300-
...SOUTHWEST MISSOURI...

CITY           SKY/WX    TMP DP  RH WIND       PRES   REMARKS
SPRINGFIELD    CLOUDY    33  32  96 SE6       30.16R FOG     WCI  28
6HR MIN TEMP:  33; 6HR MAX TEMP:  34; 6HR PCP:  0.03;

JOPLIN         CLOUDY    35  34  96 E5        30.17R FOG
6HR MIN TEMP:  33; 6HR MAX TEMP:  35; 6HR PCP:  0.05;


$$
MOZ032>034-039>042-045>050-055>058-069>072-181300-
...CENTRAL MISSOURI...

CITY           SKY/WX    TMP DP  RH WIND       PRES   REMARKS
COLUMBIA       LGT SNOW  29  27  92 E7        30.24S FOG     WCI  22
6HR MIN TEMP:  29; 6HR MAX TEMP:  31; 6HR PCP:  0.05;

JEFFERSON CITY LGT SNOW  30  27  88 E5        30.27R FOG     WCI  25
6HR MIN TEMP:  30; 6HR MAX TEMP:  34; 6HR PCP: TRACE;

ROLLA          LGT SNOW  30  29  96 E5        30.21R FOG     WCI  25
6HR MIN TEMP:  30; 6HR MAX TEMP:  32; 6HR PCP:  0.05;

SEDALIA        CLOUDY    31  29  92 E7        30.22S WCI  24
6HR MIN TEMP:  31; 6HR MAX TEMP:  33; 6HR PCP:  0.03;

WARRENSBURG    CLOUDY    30  28  93 NE7       30.21F FOG     WCI  23
OSAGE BEACH    CLOUDY    30  28  93 E7        30.21F WCI  23

$$
MOZ051-052-059>065-181300-
...EAST CENTRAL MISSOURI...

CITY           SKY/WX    TMP DP  RH WIND       PRES   REMARKS
ST LOUIS INTL  FLURRIES  30  23  75 CALM      30.29R
6HR MIN TEMP:  30; 6HR MAX TEMP:  31; 6HR PCP: TRACE;

SPIRIT OF STL  LGT SNOW N/A N/A N/A NE7       30.27R
                                      6HR PCP: TRACE;

ST CHARLES     CLOUDY    29  23  78 NE3       30.29R
6HR MIN TEMP:  29; 6HR MAX TEMP:  29;


$$
MOZ072>076-082>087-097>100-106>115-181300-
...SOUTH CENTRAL AND SOUTHEAST MISSOURI...

CITY           SKY/WX    TMP DP  RH WIND       PRES   REMARKS
CAPE GIRARDEAU CLOUDY    33  32  96 NE6       30.26F FOG     WCI  28
6HR MIN TEMP:  33; 6HR MAX TEMP:  34; 6HR PCP:  0.14;

FARMINGTON     CLOUDY    32  30  93 N3        30.24S
6HR MIN TEMP:  32; 6HR MAX TEMP:  36; 6HR PCP:  0.04;

POPLAR BLUFF   CLOUDY    34  31  88 NE5       30.24R FOG     WCI  30
6HR MIN TEMP:  33; 6HR MAX TEMP:  34; 6HR PCP:  0.10;

WEST PLAINS    CLOUDY    32  31  96 E3        30.20R
6HR MIN TEMP:  32; 6HR MAX TEMP:  33; 6HR PCP:  0.02;


$$



USA.gov is the U.S. government's official web portal to all federal, state and local government web resources and services.